H1 CPF 2 NER 2023 8 11 9 223 01 glonass142 H2 2001801 9142 45358 2023 8 11 0 0 0 2023 8 14 23 45 0 900 1 1 0 0 0 1 H9 10 0 60167 0.00000 0 10641137.742 15396587.961 17356979.157 10 0 60167 900.00000 0 8685926.776 14260143.579 19306168.992 10 0 60167 1800.00000 0 6454047.993 13183471.150 20881139.232 10 0 60167 2700.00000 0 3990332.180 12216242.835 22051339.849 10 0 60167 3600.00000 0 1349105.814 11399951.882 22794045.180 10 0 60167 4500.00000 0 -1407811.772 10766170.919 23094793.893 10 0 60167 5400.00000 0 -4213424.626 10335243.208 22947671.771 10 0 60167 6300.00000 0 -6998095.358 10115461.439 22355431.829 10 0 60167 7200.00000 0 -9692195.605 10102768.517 21329449.079 10 0 60167 8100.00000 0 -12228763.175 10280993.189 19889510.187 10 0 60167 9000.00000 0 -14546056.677 10622611.155 18063441.137 10 0 60167 9900.00000 0 -16589902.211 11090000.351 15886579.031 10 0 60167 10800.00000 0 -18315734.962 11637138.342 13401097.094 10 0 60167 11700.00000 0 -19690250.744 12211670.963 10655194.861 10 0 60167 12600.00000 0 -20692598.456 12757265.414 7702168.393 10 0 60167 13500.00000 0 -21315063.354 13216148.576 4599377.945 10 0 60167 14400.00000 0 -21563212.252 13531723.036 1407132.876 10 0 60167 15300.00000 0 -21455494.385 13651149.521 -1812484.335 10 0 60167 16200.00000 0 -21022314.706 13527785.454 -4996831.627 10 0 60167 17100.00000 0 -20304618.874 13123375.128 -8083934.060 10 0 60167 18000.00000 0 -19352050.016 12409897.317 -11013698.790 10 0 60167 18900.00000 0 -18220755.720 11370990.604 -13729093.620 10 0 60167 19800.00000 0 -16970938.574 10002894.657 -16177265.225 10 0 60167 20700.00000 0 -15664254.501 8314866.291 -18310574.395 10 0 60167 21600.00000 0 -14361169.460 6329051.531 -20087527.574 10 0 60167 22500.00000 0 -13118386.598 4079817.993 -21473586.264 10 0 60167 23400.00000 0 -11986452.706 1612574.816 -22441838.487 10 0 60167 24300.00000 0 -11007644.883 -1017871.083 -22973519.469 10 0 60167 25200.00000 0 -10214226.104 -3749354.130 -23058371.841 10 0 60167 26100.00000 0 -9627142.574 -6514699.831 -22694838.865 10 0 60167 27000.00000 0 -9255216.796 -9244287.461 -21890087.532 10 0 60167 27900.00000 0 -9094869.267 -11868719.313 -20659861.625 10 0 60167 28800.00000 0 -9130379.331 -14321485.783 -19028168.131 10 0 60167 29700.00000 0 -9334673.006 -16541515.900 -17026803.514 10 0 60167 30600.00000 0 -9670603.432 -18475507.851 -14694729.385 10 0 60167 31500.00000 0 -10092668.920 -20079943.245 -12077309.987 10 0 60167 32400.00000 0 -10549095.266 -21322702.253 -9225426.529 10 0 60167 33300.00000 0 -10984193.748 -22184213.411 -6194485.757 10 0 60167 34200.00000 0 -11340894.730 -22658091.384 -3043342.227 10 0 60167 35100.00000 0 -11563349.545 -22751237.443 166844.635 10 0 60167 36000.00000 0 -11599490.579 -22483399.815 3373796.371 10 0 60167 36900.00000 0 -11403441.356 -21886213.650 6515321.129 10 0 60167 37800.00000 0 -10937674.885 -21001761.972 9530515.745 10 0 60167 38700.00000 0 -10174829.154 -19880718.858 12360941.161 10 0 60167 39600.00000 0 -9099103.165 -18580153.299 14951748.700 10 0 60167 40500.00000 0 -7707174.435 -17161086.092 17252735.896 10 0 60167 41400.00000 0 -6008598.844 -15685902.059 19219312.120 10 0 60167 42300.00000 0 -4025675.221 -14215725.678 20813356.000 10 0 60167 43200.00000 0 -1792779.176 -12807869.345 22003948.861 10 0 60167 44100.00000 0 644807.470 -11513460.326 22767970.682 10 0 60167 45000.00000 0 3232524.480 -10375344.871 23090547.594 10 0 60167 45900.00000 0 5908552.301 -9426356.385 22965342.547 10 0 60167 46800.00000 0 8606140.341 -8688019.528 22394683.551 10 0 60167 47700.00000 0 11256149.425 -8169744.077 21389526.643 10 0 60167 48600.00000 0 13789704.376 -7868542.176 19969253.658 10 0 60167 49500.00000 0 16140847.787 -7769280.944 18161307.788 10 0 60167 50400.00000 0 18249085.521 -7845460.122 16000672.869 10 0 60167 51300.00000 0 20061718.525 -8060482.512 13529205.348 10 0 60167 52200.00000 0 21535863.917 -8369364.107 10794830.750 10 0 60167 53100.00000 0 22640080.811 -8720812.157 7850619.354 10 0 60167 54000.00000 0 23355532.505 -9059583.509 4753758.396 10 0 60167 54900.00000 0 23676635.903 -9329023.338 1564440.507 10 0 60167 55800.00000 0 23611170.437 -9473676.284 -1655309.879 10 0 60167 56700.00000 0 23179841.619 -9441858.573 -4842848.814 10 0 60167 57600.00000 0 22415317.446 -9188080.969 -7936139.507 10 0 60167 58500.00000 0 21360778.410 -8675218.532 -10874968.475 10 0 60167 59400.00000 0 20068042.570 -7876333.778 -13602126.485 10 0 60167 60300.00000 0 18595345.291 -6776074.556 -16064530.301 10 0 60167 61200.00000 0 17004867.946 -5371586.035 -18214262.531 10 0 60167 62100.00000 0 15360120.383 -3672897.005 -20009508.735 10 0 60167 63000.00000 0 13723287.995 -1702762.963 -21415373.221 10 0 60167 63900.00000 0 12152655.454 504028.364 -22404557.603 10 0 60167 64800.00000 0 10700215.550 2901860.700 -22957889.122 10 0 60167 65700.00000 0 9409563.414 5435952.339 -23064688.865 10 0 60167 66600.00000 0 8314164.022 8044409.560 -22722973.244 10 0 60167 67500.00000 0 7436064.829 10660585.017 -21939485.405 10 0 60167 68400.00000 0 6785106.405 13215643.043 -20729556.512 10 0 60167 69300.00000 0 6358662.846 15641225.275 -19116800.136 10 0 60167 70200.00000 0 6141921.388 17872105.932 -17132646.095 10 0 60167 71100.00000 0 6108687.896 19848726.606 -14815723.150 10 0 60167 72000.00000 0 6222682.912 21519505.503 -12211102.848 10 0 60167 72900.00000 0 6439272.315 22842825.588 -9369419.416 10 0 60167 73800.00000 0 6707558.495 23788619.564 -6345883.011 10 0 60167 74700.00000 0 6972742.901 24339486.470 -3199205.691 10 0 60167 75600.00000 0 7178659.535 24491294.356 9538.845 10 0 60167 76500.00000 0 7270371.927 24253244.956 3218099.525 10 0 60167 77400.00000 0 7196723.635 23647398.784 6364253.056 10 0 60167 78300.00000 0 6912734.425 22707681.553 9387006.648 10 0 60167 79200.00000 0 6381740.913 21478414.372 12227775.180 10 0 60167 80100.00000 0 5577191.302 20012429.852 14831510.282 10 0 60167 81000.00000 0 4484018.412 18368853.297 17147759.997 10 0 60167 81900.00000 0 3099532.815 16610641.780 19131639.156 10 0 60167 82800.00000 0 1433797.894 14801983.699 20744692.419 10 0 60167 83700.00000 0 -490529.889 13005666.878 21955634.052 10 0 60167 84600.00000 0 -2638890.178 11280524.332 22740950.868 10 0 60167 85500.00000 0 -4966010.135 9679063.448 23085357.187 10 0 60168 0.00000 0 -7417550.003 8245376.700 22982093.393 10 0 60168 900.00000 0 -9932137.490 7013419.557 22433062.164 10 0 60168 1800.00000 0 -12443704.880 6005728.669 21448799.673 10 0 60168 2700.00000 0 -14884037.714 5232630.892 20048281.469 10 0 60168 3600.00000 0 -17185427.225 4691977.912 18258565.932 10 0 60168 4500.00000 0 -19283318.443 4369416.780 16114281.115 10 0 60168 5400.00000 0 -21118844.129 4239185.206 13656963.750 10 0 60168 6300.00000 0 -22641139.063 4265398.361 10934262.102 10 0 60168 7200.00000 0 -23809337.866 4403773.127 7999017.236 10 0 60168 8100.00000 0 -24594172.311 4603717.048 4908239.884 10 0 60168 9000.00000 0 -24979100.566 4810693.521 1722002.497 10 0 60168 9900.00000 0 -24960920.258 4968762.654 -1497731.855 10 0 60168 10800.00000 0 -24549838.943 5023189.416 -4688320.474 10 0 60168 11700.00000 0 -23768998.571 4923007.492 -7787667.645 10 0 60168 12600.00000 0 -22653473.675 4623428.872 -10735441.933 10 0 60168 13500.00000 0 -21248785.570 4087995.646 -13474259.479 10 0 60168 14400.00000 0 -19608995.340 3290381.357 -15950809.239 10 0 60168 15300.00000 0 -17794456.436 2215764.231 -18116897.367 10 0 60168 16200.00000 0 -15869321.980 861712.885 -19930389.836 10 0 60168 17100.00000 0 -13898912.130 -761454.105 -21356034.580 10 0 60168 18000.00000 0 -11947052.542 -2630850.935 -22366147.119 10 0 60168 18900.00000 0 -10073495.820 -4711742.814 -22941146.507 10 0 60168 19800.00000 0 -8331533.973 -6958770.241 -23069931.605 10 0 60168 20700.00000 0 -6765901.506 -9317628.561 -22750090.846 10 0 60168 21600.00000 0 -5411056.164 -11727132.945 -21987942.016 10 0 60168 22500.00000 0 -4289908.182 -14121582.852 -20798401.839 10 0 60168 23400.00000 0 -3413049.891 -16433327.498 -19204688.399 10 0 60168 24300.00000 0 -2778516.293 -18595425.603 -17237862.625 10 0 60168 25200.00000 0 -2372084.930 -20544288.748 -14936218.094 10 0 60168 26100.00000 0 -2168100.670 -22222198.413 -12344531.294 10 0 60168 27000.00000 0 -2130789.037 -23579592.145 -9513187.158 10 0 60168 27900.00000 0 -2216001.284 -24577023.948 -6497197.023 10 0 60168 28800.00000 0 -2373316.338 -25186717.671 -3355128.350 10 0 60168 29700.00000 0 -2548409.917 -25393649.258 -147967.126 10 0 60168 30600.00000 0 -2685590.028 -25196113.425 3062064.828 10 0 60168 31500.00000 0 -2730391.268 -24605751.935 6212714.560 10 0 60168 32400.00000 0 -2632118.062 -23647043.087 9242901.385 10 0 60168 33300.00000 0 -2346229.315 -22356274.517 12093895.805 10 0 60168 34200.00000 0 -1836463.812 -20780042.753 14710451.414 10 0 60168 35100.00000 0 -1076616.632 -18973342.576 17041868.355 10 0 60168 36000.00000 0 -51891.590 -16997325.954 19042968.425 10 0 60168 36900.00000 0 1240227.630 -14916823.838 20674963.676 10 0 60168 37800.00000 0 2789624.945 -12797733.601 21906202.493 10 0 60168 38700.00000 0 4573733.816 -10704380.201 22712779.469 10 0 60168 39600.00000 0 6558247.419 -8696960.075 23078997.820 10 0 60168 40500.00000 0 8698329.069 -6829173.182 22997675.736 10 0 60168 41400.00000 0 10940274.191 -5146140.799 22470290.771 10 0 60168 42300.00000 0 13223556.479 -3682694.993 21506959.160 10 0 60168 43200.00000 0 15483174.717 -2462110.320 20126249.813 10 0 60168 44100.00000 0 17652204.123 -1495330.208 18354835.695 10 0 60168 45000.00000 0 19664447.029 -780720.047 16226988.204 10 0 60168 45900.00000 0 21457073.193 -304357.169 13783923.217 10 0 60168 46800.00000 0 22973139.826 -40845.498 11073010.302 10 0 60168 47700.00000 0 24163885.895 45379.405 8146859.562 10 0 60168 48600.00000 0 24990704.151 -1689.984 5062303.149 10 0 60168 49500.00000 0 25426707.501 -131735.082 1879290.962 10 0 60168 50400.00000 0 25457823.006 -290485.361 -1340277.928 10 0 60168 51300.00000 0 25083366.655 -422263.556 -4533764.901 10 0 60168 52200.00000 0 24316073.885 -472593.096 -7639018.230 10 0 60168 53100.00000 0 23181583.967 -390756.059 -10595591.440 10 0 60168 54000.00000 0 21717399.605 -132191.892 -13345928.858 10 0 60168 54900.00000 0 19971365.435 339366.154 -15836494.268 10 0 60168 55800.00000 0 17999729.622 1050108.750 -18018819.805 10 0 60168 56700.00000 0 15864870.343 2014799.064 -19850454.045 10 0 60168 57600.00000 0 13632783.047 3235910.490 -21295790.502 10 0 60168 58500.00000 0 11370434.280 4703290.885 -22326760.294 10 0 60168 59400.00000 0 9143093.199 6394368.311 -22923375.709 10 0 60168 60300.00000 0 7011752.456 8274890.312 -23074114.485 10 0 60168 61200.00000 0 5030746.044 10300166.171 -22776137.827 10 0 60168 62100.00000 0 3245663.020 12416760.475 -22035338.523 10 0 60168 63000.00000 0 1691643.270 14564567.374 -20866218.780 10 0 60168 63900.00000 0 392125.235 16679178.966 -19291600.671 10 0 60168 64800.00000 0 -641903.671 18694448.963 -17342175.263 10 0 60168 65700.00000 0 -1412124.390 20545144.732 -15055899.528 10 0 60168 66600.00000 0 -1932564.113 22169577.017 -12477253.053 10 0 60168 67500.00000 0 -2228750.158 23512097.719 -9656369.232 10 0 60168 68400.00000 0 -2336377.250 24525361.644 -6648058.007 10 0 60168 69300.00000 0 -2299545.897 25172257.991 -3510739.358 10 0 60168 70200.00000 0 -2168647.468 25427431.308 -305308.461 10 0 60168 71100.00000 0 -1997986.276 25278328.791 2906045.354 10 0 60168 72000.00000 0 -1843239.803 24725730.708 6061042.787 10 0 60168 72900.00000 0 -1758864.760 23783742.326 9098518.538 10 0 60168 73800.00000 0 -1795558.785 22479248.153 11959601.930 10 0 60168 74700.00000 0 -1997884.941 20850851.724 14588851.551 10 0 60168 75600.00000 0 -2402159.240 18947345.342 16935322.476 10 0 60168 76500.00000 0 -3034690.218 16825773.592 18953546.048 10 0 60168 77400.00000 0 -3910444.835 14549171.025 20604404.002 10 0 60168 78300.00000 0 -5032197.205 12184067.654 21855880.806 10 0 60168 79200.00000 0 -6390196.597 9797865.221 22683680.422 10 0 60168 80100.00000 0 -7962369.713 7456192.398 23071696.116 10 0 60168 81000.00000 0 -9715050.131 5220347.734 23012324.579 10 0 60168 81900.00000 0 -11604206.102 3144935.572 22506618.337 10 0 60168 82800.00000 0 -13577117.147 1275792.175 21564273.192 10 0 60168 83700.00000 0 -15574431.270 -351712.480 20203450.321 10 0 60168 84600.00000 0 -17532518.558 -1713927.249 18450435.550 10 0 60168 85500.00000 0 -19386024.239 -2799674.909 16339141.331 10 0 60169 0.00000 0 -21070515.389 -3610478.526 13910460.096 10 0 60169 900.00000 0 -22525111.999 -4160250.188 11211479.045 10 0 60169 1800.00000 0 -23694990.073 -4474454.316 8294573.981 10 0 60169 2700.00000 0 -24533654.469 -4588782.328 5216394.770 10 0 60169 3600.00000 0 -25004883.019 -4547393.683 2036764.977 10 0 60169 4500.00000 0 -25084260.173 -4400798.503 -1182484.053 10 0 60169 5400.00000 0 -24760234.381 -4203471.888 -4378721.386 10 0 60169 6300.00000 0 -24034653.596 -4011301.846 -7489742.706 10 0 60169 7200.00000 0 -22922755.375 -3878980.019 -10454989.687 10 0 60169 8100.00000 0 -21452611.280 -3857447.057 -13216737.746 10 0 60169 9000.00000 0 -19664048.429 -3991502.185 -15721228.059 10 0 60169 9900.00000 0 -17607093.413 -4317679.538 -17919720.885 10 0 60169 10800.00000 0 -15340003.961 -4862482.342 -19769449.058 10 0 60169 11700.00000 0 -12926971.124 -5641050.720 -21234452.758 10 0 60169 12600.00000 0 -10435588.556 -6656320.262 -22286279.169 10 0 60169 13500.00000 0 -7934195.011 -7898707.572 -22904533.635 10 0 60169 14400.00000 0 -5489201.144 -9346336.616 -23077271.975 10 0 60169 15300.00000 0 -3162512.130 -10965796.734 -22801226.803 10 0 60169 16200.00000 0 -1009153.122 -12713400.748 -22081864.062 10 0 60169 17100.00000 0 924804.205 -14536890.591 -20933269.207 10 0 60169 18000.00000 0 2603928.687 -16377519.031 -19377865.770 10 0 60169 18900.00000 0 4004661.338 -18172420.374 -17445972.235 10 0 60169 19800.00000 0 5116041.953 -19857170.905 -15175206.128 10 0 60169 20700.00000 0 5939902.154 -21368431.912 -12609747.265 10 0 60169 21600.00000 0 6490518.808 -22646564.705 -9799474.663 10 0 60169 22500.00000 0 6793744.345 -23638108.241 -6798994.108 10 0 60169 23400.00000 0 6885652.356 -24298015.782 -3666575.487 10 0 60169 24300.00000 0 6810757.124 -24591557.105 -463020.709 10 0 60169 25200.00000 0 6619883.448 -24495806.901 2749515.663 10 0 60169 26100.00000 0 6367777.635 -24000657.356 5908730.046 10 0 60169 27000.00000 0 6110561.166 -23109312.821 8953374.407 10 0 60169 27900.00000 0 5903134.874 -21838246.175 11824438.562 10 0 60169 28800.00000 0 5796643.333 -20216618.859 14466287.571 10 0 60169 29700.00000 0 5836106.350 -18285188.842 16827732.706 10 0 60169 30600.00000 0 6058317.252 -16094751.846 18863015.905 10 0 60169 31500.00000 0 6490096.438 -13704180.389 20532689.402 10 0 60169 32400.00000 0 7146973.674 -11178141.568 21804374.313 10 0 60169 33300.00000 0 8032354.880 -8584587.560 22653384.282 10 0 60169 34200.00000 0 9137208.990 -5992122.042 23063202.673 10 0 60169 35100.00000 0 10440289.003 -3467350.669 23025804.484 10 0 60169 36000.00000 0 11908879.295 -1072324.378 22541816.790 10 0 60169 36900.00000 0 13500039.423 1137819.462 21620514.337 10 0 60169 37800.00000 0 15162294.041 3116921.071 20279649.749 10 0 60169 38700.00000 0 16837699.878 4829482.467 18545120.734 10 0 60169 39600.00000 0 18464204.713 6251902.320 16450479.644 10 0 60169 40500.00000 0 19978200.726 7373210.348 14036293.691 10 0 60169 41400.00000 0 21317165.967 8195270.874 11349367.088 10 0 60169 42300.00000 0 22422283.383 8732447.151 8441839.243 10 0 60169 43200.00000 0 23240927.223 9010740.763 5370175.837 10 0 60169 44100.00000 0 23728911.633 9066442.569 2194072.016 10 0 60169 45000.00000 0 23852405.848 8944352.485 -1024710.870 10 0 60169 45900.00000 0 23589434.094 8695643.867 -4223551.960 10 0 60169 46800.00000 0 22930895.752 8375463.635 -7340196.795 10 0 60169 47700.00000 0 21881061.506 8040370.733 -10313977.627 10 0 60169 48600.00000 0 20457523.521 7745722.533 -13087003.309 10 0 60169 49500.00000 0 18690600.849 7543121.126 -15605294.616 10 0 60169 50400.00000 0 16622224.518 7478028.853 -17819841.973 10 0 60169 51300.00000 0 14304348.806 7587655.123 -19687564.346 10 0 60169 52200.00000 0 11796955.225 7899204.863 -21172150.278 10 0 60169 53100.00000 0 9165732.896 8428563.395 -22244764.555 10 0 60169 54000.00000 0 6479532.406 9179473.818 -22884606.935 10 0 60169 54900.00000 0 3807699.509 10143241.952 -23079312.459 10 0 60169 55800.00000 0 1217399.828 11298981.488 -22825186.022 10 0 60169 56700.00000 0 -1228954.299 12614389.096 -22127267.256 10 0 60169 57600.00000 0 -3476068.263 14047016.918 -20999225.005 10 0 60169 58500.00000 0 -5477823.331 15545988.885 -19463083.973 10 0 60169 59400.00000 0 -7198944.013 17054088.748 -17548789.306 10 0 60169 60300.00000 0 -8616206.678 18510132.062 -15293617.904 10 0 60169 61200.00000 0 -9719140.680 19851522.495 -12741448.212 10 0 60169 62100.00000 0 -10510194.680 21016885.151 -9941902.907 10 0 60169 63000.00000 0 -11004363.151 21948666.372 -6949381.348 10 0 60169 63900.00000 0 -11228290.698 22595590.925 -3822000.799 10 0 60169 64800.00000 0 -11218893.624 22914873.536 -620467.179 10 0 60169 65700.00000 0 -11021558.303 22874092.090 2593102.580 10 0 60169 66600.00000 0 -10687993.519 22452644.032 5756383.583 10 0 60169 67500.00000 0 -10273828.213 21642725.072 8808048.069 10 0 60169 68400.00000 0 -9836056.513 20449789.239 11688949.359 10 0 60169 69300.00000 0 -9430438.037 18892471.060 14343261.951 10 0 60169 70200.00000 0 -9108963.071 17001972.932 16719556.183 10 0 60169 71100.00000 0 -8917489.201 14820942.912 18771787.311 10 0 60169 72000.00000 0 -8893648.664 12401889.135 20460180.594 10 0 60169 72900.00000 0 -9065114.213 9805196.063 21751996.076 10 0 60169 73800.00000 0 -9448296.317 7096823.967 22622159.036 10 0 60169 74700.00000 0 -10047526.603 4345786.026 23053744.517 10 0 60169 75600.00000 0 -10854762.306 1621506.391 23038306.955 10 0 60169 76500.00000 0 -11849824.969 -1008832.525 22576048.586 10 0 60169 77400.00000 0 -13001164.532 -3482844.771 21675823.138 10 0 60169 78300.00000 0 -14267118.136 -5745292.714 20354974.117 10 0 60169 79200.00000 0 -15597612.374 -7750139.291 18639009.927 10 0 60169 80100.00000 0 -16936238.974 -9462215.999 16561121.027 10 0 60169 81000.00000 0 -18222618.079 -10858437.605 14161547.293 10 0 60169 81900.00000 0 -19394950.765 -11928513.213 11486806.678 10 0 60169 82800.00000 0 -20392653.969 -12675124.057 8588799.183 10 0 60169 83700.00000 0 -21158966.963 -13113560.710 5523802.794 10 0 60169 84600.00000 0 -21643419.147 -13270835.144 2351380.556 10 0 60169 85500.00000 0 -21804054.264 -13184305.270 -866779.938 10 0 60170 0.00000 0 -21609316.056 -12899870.517 -4068071.381 10 0 60170 900.00000 0 -21039514.299 -12469815.122 -7190193.444 10 0 60170 1800.00000 0 -20087808.247 -11950391.663 -10172372.228 10 0 60170 2700.00000 0 -18760664.323 -11399247.566 -12956553.380 10 0 60170 3600.00000 0 -17077767.775 -10872805.003 -15488540.352 10 0 60170 4500.00000 0 -15071391.003 -10423706.074 -17719056.446 10 0 60170 5400.00000 0 -12785244.459 -10098432.390 -19604708.998 10 0 60170 6300.00000 0 -10272857.870 -9935200.620 -21108836.593 10 0 60170 7200.00000 0 -7595559.407 -9962223.551 -22202222.646 10 0 60170 8100.00000 0 -4820137.188 -10196410.498 -22863661.676 10 0 60170 9000.00000 0 -2016280.687 -10642562.050 -23080367.598 10 0 60170 9900.00000 0 746091.358 -11293093.096 -22848216.598 10 0 60170 10800.00000 0 3399505.492 -12128295.583 -22171820.434 10 0 60170 11700.00000 0 5881499.699 -13117129.684 -21064429.300 10 0 60170 12600.00000 0 8136975.047 -14218509.755 -19547666.649 10 0 60170 13500.00000 0 10120235.929 -15383030.634 -17651101.578 10 0 60170 14400.00000 0 11796635.255 -16555061.390 -15411667.412 10 0 60170 15300.00000 0 13143757.449 -17675118.163 -12872938.121 10 0 60170 16200.00000 0 14152091.658 -18682416.121 -10084276.831 10 0 60170 17100.00000 0 14825168.888 -19517493.013 -7099873.210 10 0 60170 18000.00000 0 15179159.201 -20124793.906 -3977688.643 10 0 60170 18900.00000 0 15241947.741 -20455108.321 -778329.890 10 0 60170 19800.00000 0 15051730.072 -20467757.330 2436126.771 10 0 60170 20700.00000 0 14655187.337 -20132438.674 5603337.917 10 0 60170 21600.00000 0 14105319.172 -19430652.444 8661898.565 10 0 60170 22500.00000 0 13459026.412 -18356647.424 11552527.694 10 0 60170 23400.00000 0 12774545.803 -16917848.313 14219211.019 10 0 60170 24300.00000 0 12108844.857 -15134745.649 16610279.334 10 0 60170 25200.00000 0 11515086.304 -13040252.539 18679402.216 10 0 60170 26100.00000 0 11040268.485 -10678554.343 20386478.566 10 0 60170 27000.00000 0 10723140.418 -8103498.287 21698407.606 10 0 60170 27900.00000 0 10592478.768 -5376588.817 22589726.165 10 0 60170 28800.00000 0 10665798.808 -2564670.639 23043100.565 10 0 60170 29700.00000 0 10948553.521 262605.853 23049663.983 10 0 60170 30600.00000 0 11433854.745 3035433.147 22609192.877 10 0 60170 31500.00000 0 12102728.717 5686500.754 21730118.799 10 0 60170 32400.00000 0 12924896.250 8153546.098 20429374.798 10 0 60170 33300.00000 0 13860045.918 10381697.372 18732078.477 10 0 60170 34200.00000 0 14859548.005 12325511.735 16671056.783 10 0 60170 35100.00000 0 15868538.339 13950624.576 14286220.514 10 0 60170 36000.00000 0 16828285.300 15234941.365 11623799.510 10 0 60170 36900.00000 0 17678740.909 16169322.375 8735452.388 10 0 60170 37800.00000 0 18361168.705 16757731.635 5677267.375 10 0 60170 38700.00000 0 18820737.243 17016843.894 2508673.240 10 0 60170 39600.00000 0 19008969.035 16975126.206 -708718.419 10 0 60170 40500.00000 0 18885940.405 16671433.142 -3912316.670 10 0 60170 41400.00000 0 18422137.971 16153175.358 -7039776.386 10 0 60170 42300.00000 0 17599891.822 15474139.582 -10030220.223 10 0 60170 43200.00000 0 16414323.384 14692053.047 -12825432.616 10 0 60170 44100.00000 0 14873766.523 13865996.339 -15371001.526 10 0 60170 45000.00000 0 12999642.926 13053775.107 -17617384.778 10 0 60170 45900.00000 0 10825795.989 12309362.677 -19520879.567 10 0 60170 46800.00000 0 8397310.391 11680522.447 -21044475.849 10 0 60170 47700.00000 0 5768866.362 11206711.032 -22158576.873 10 0 60170 48600.00000 0 3002697.127 10917350.928 -22841572.971 10 0 60170 49500.00000 0 166234.630 10830545.587 -23080257.823 10 0 60170 50400.00000 0 -2670458.448 10952290.775 -22870079.561 10 0 60170 51300.00000 0 -5437363.632 11276215.034 -22215222.433 10 0 60170 52200.00000 0 -8067177.607 11783859.547 -21128517.984 10 0 60170 53100.00000 0 -10497868.544 12445484.991 -19631188.008 10 0 60170 54000.00000 0 -12675012.219 13221370.709 -17752424.724 10 0 60170 54900.00000 0 -14553811.709 14063550.889 -15528816.664 10 0 60170 55800.00000 0 -16100717.728 14917914.061 -13003631.743 10 0 60170 56700.00000 0 -17294583.499 15726577.019 -10225971.676 10 0 60170 57600.00000 0 -18127307.589 16430432.796 -7249814.361 10 0 60170 58500.00000 0 -18603939.500 16971765.061 -4132963.061 10 0 60170 59400.00000 0 -18742245.367 17296818.603 -935923.005 10 0 60170 60300.00000 0 -18571753.633 17358217.515 2279272.644 10 0 60170 61200.00000 0 -18132322.268 17117129.154 5450264.491 10 0 60170 62100.00000 0 -17472288.999 16545082.778 8515572.947 10 0 60170 63000.00000 0 -16646283.249 15625366.273 11415785.330 10 0 60170 63900.00000 0 -15712792.402 14353942.135 14094701.277 10 0 60170 64800.00000 0 -14731584.944 12739843.963 16500414.728 10 0 60170 65700.00000 0 -13761098.724 10805036.294 18586312.193 10 0 60170 66600.00000 0 -12855903.680 8583742.897 20311968.701 10 0 60170 67500.00000 0 -12064345.044 6121270.495 21643924.923 10 0 60170 68400.00000 0 -11426465.296 3472375.613 22556331.241 10 0 60170 69300.00000 0 -10972291.506 699241.029 23031446.913 10 0 60170 70200.00000 0 -10720559.432 -2130855.746 23059985.122 10 0 60170 71100.00000 0 -10677927.740 -4948086.888 22641297.356 10 0 60170 72000.00000 0 -10838715.424 -7682727.570 21783393.302 10 0 60170 72900.00000 0 -11185173.892 -10267809.554 20502795.331 10 0 60170 73800.00000 0 -11688282.970 -12641666.139 18824229.490 10 0 60170 74700.00000 0 -12309038.303 -14750263.595 16780157.907 10 0 60170 75600.00000 0 -13000176.887 -16549222.709 14410160.491 10 0 60170 76500.00000 0 -13708268.968 -18005446.463 11760176.701 10 0 60170 77400.00000 0 -14376088.724 -19098285.935 8881621.118 10 0 60170 78300.00000 0 -14945163.994 -19820195.531 5830389.230 10 0 60170 79200.00000 0 -15358397.256 -20176849.910 2665772.333 10 0 60170 80100.00000 0 -15562646.489 -20186717.587 -550697.341 10 0 60170 81000.00000 0 -15511155.856 -19880109.165 -3756448.426 10 0 60170 81900.00000 0 -15165732.115 -19297740.569 -6889095.099 10 0 60170 82800.00000 0 -14498573.212 -18488872.338 -9887659.811 10 0 60170 83700.00000 0 -13493670.172 -17509104.228 -12693769.244 10 0 60170 84600.00000 0 -12147721.532 -16417919.106 -15252799.177 10 0 60170 85500.00000 0 -10470520.271 -15276080.790 -17514945.026 99